Location: Arbon
(43.0005°N, 0.7472°E)
Time: 22:15:19
(UTC+00:00)

Altair - Pass Details

Date: 27 November 2020
Orbit: 1501 x 1682 km, 47.2° (Epoch: 26 January)

Event Time Altitude Azimuth Distance (km) Brightness Sun altitude
Rises 03:40:53 0° 295° (WNW) 4,638 - -36.7°
Reaches altitude 10° 03:44:03 10° 289° (WNW) 3,658 - -36.1°
Maximum altitude 03:52:31 43° 222° (SW) 2,017 - -34.6°
Exits shadow 03:54:38 38° 192° (SSW) 2,166 8.1 -34.2°
Drops below altitude 10° 04:01:10 10° 155° (SSE) 3,728 9.7 -33.0°
Sets 04:04:27 0° 148° (SSE) 4,734 10.4 -32.4°
